Location: Unspecified
(0.0000°N, 0.0000°E)
Time: 03:26:52
(UTC+00:00)

N. Korean satellite - Pass Details

Date: 18 August 2019
Orbit: 457 x 507 km, 97.2° (Epoch: 16 August)

Event Time Altitude Azimuth Distance (km) Brightness Sun altitude
Rises 05:00:45 0° 33° (NNE) 2,519 11.0 -15.4°
Reaches altitude 10° 05:03:09 10° 50° (NE) 1,635 10.3 -14.8°
Maximum altitude 05:05:52 21° 101° (E) 1,099 9.2 -14.1°
Drops below altitude 10° 05:08:34 10° 152° (SSE) 1,621 9.4 -13.5°
Sets 05:10:57 0° 168° (SSE) 2,492 10.2 -12.9°
